Pratt, KS

3:14 PM CDT on July 23, 2017 (GMT -0500)
Pratt Industrial

Weather History for KPTT - October, 2012

Change the Weather History Date:

Friday, October 12, 2012

  Actual Average (KP28) Record (KP28)
Temperature  
Mean Temperature 50 °F -  
Max Temperature 55 °F 70 °F 93 °F (1979)
Min Temperature 46 °F 45 °F 26 °F (1917)
Degree Days  
Heating Degree Days 14    
Moisture  
Dew Point 43 °F    
Average Humidity 80    
Maximum Humidity 100    
Minimum Humidity 44    
Precipitation  
Precipitation 0.02 in - - ()
Sea Level Pressure  
Sea Level Pressure 30.15 in    
Wind  
Wind Speed 11 mph (NE)    
Max Wind Speed 20 mph    
Max Gust Speed 24 mph    
Visibility 5 miles    
Events Fog , Rain , Thunderstorm    
Averages and records for this station are not official NWS values.
T = Trace of Precipitation, MM = Missing Value Source: NWS Daily Summary

Daily Weather History Graph

Daily Weather History Graph

Search for Another Location

Airport or City:

Trip Planner

Search our weather history database for the weather conditions in past years. The results will help you decide how hot, cold, wet, or windy it might be!

Date:

Astronomy

Oct. 12, 2012 Rise Set
Actual Time 7:40 AM CDT 7:01 PM CDT
Civil Twilight 7:14 AM CDT 7:27 PM CDT
Nautical Twilight 6:44 AM CDT 7:57 PM CDT
Astronomical Twilight 6:13 AM CDT 8:28 PM CDT
Moon 4:28 AM CDT (10/12) 5:09 PM CDT (10/12)
Length of Visible Light 12h 12m
Length of Day
11h 20m
Waning Crescent, 10% of the Moon is Illuminated
Oct 12
Waning Crescent
Oct 15
New
Oct 21
First Quarter
Oct 29
Full
Nov 6
Last Quarter

Hourly Weather History & Observations

Time (CDT) Temp. Windchill Dew Point Humidity Pressure Visibility Wind Dir Wind Speed Gust Speed Precip Events Conditions
12:35 AM 55.4 °F - 35.6 °F 47% 30.16 in 10.0 mi NNE 19.6 mph 23.0 mph N/A   Clear
12:55 AM 55.4 °F - 33.8 °F 44% 30.16 in 10.0 mi NNE 17.3 mph 24.2 mph N/A   Clear
1:15 AM 53.6 °F - 33.8 °F 47% 30.16 in 10.0 mi NNE 12.7 mph 17.3 mph N/A   Clear
1:35 AM 53.6 °F - 33.8 °F 47% 30.16 in 10.0 mi NNE 13.8 mph - N/A   Clear
1:55 AM 53.6 °F - 33.8 °F 47% 30.16 in 10.0 mi NNE 13.8 mph - N/A   Clear
2:15 AM 51.8 °F - 33.8 °F 50% 30.16 in 10.0 mi NNE 15.0 mph 19.6 mph N/A   Clear
2:35 AM 51.8 °F - 33.8 °F 50% 30.16 in 10.0 mi NNE 11.5 mph - N/A   Clear
2:55 AM 51.8 °F - 33.8 °F 50% 30.16 in 10.0 mi NNE 13.8 mph - N/A   Clear
3:15 AM 51.8 °F - 33.8 °F 50% 30.16 in 10.0 mi NNE 12.7 mph 18.4 mph N/A   Clear
3:55 AM 51.8 °F - 33.8 °F 50% 30.16 in 10.0 mi NNE 13.8 mph - N/A   Overcast
4:15 AM 51.8 °F - 33.8 °F 50% 30.15 in 10.0 mi NNE 11.5 mph - N/A   Overcast
4:35 AM 51.8 °F - 33.8 °F 50% 30.14 in 10.0 mi NNE 16.1 mph 19.6 mph N/A   Overcast
5:15 AM 51.8 °F - 33.8 °F 50% 30.15 in 10.0 mi NE 16.1 mph 21.9 mph N/A   Overcast
5:35 AM 51.8 °F - 33.8 °F 50% 30.17 in 10.0 mi NE 15.0 mph 18.4 mph N/A   Overcast
5:55 AM 51.8 °F - 33.8 °F 50% 30.17 in 10.0 mi NNE 15.0 mph - N/A   Overcast
6:15 AM 51.8 °F - 33.8 °F 50% 30.18 in 10.0 mi NE 17.3 mph 20.7 mph N/A   Overcast
7:35 AM 50.0 °F - 37.4 °F 62% 30.20 in 10.0 mi NE 13.8 mph - N/A   Overcast
7:55 AM 50.0 °F - 37.4 °F 62% 30.21 in 10.0 mi NE 12.7 mph - N/A   Overcast
8:15 AM 50.0 °F - 39.2 °F 66% 30.20 in 10.0 mi NE 12.7 mph - N/A   Overcast
8:35 AM 50.0 °F - 41.0 °F 71% 30.21 in 7.0 mi NE 11.5 mph - N/A   Overcast
9:15 AM 46.4 °F 41.9 °F 41.0 °F 81% 30.23 in 7.0 mi NE 9.2 mph - N/A   Overcast
9:35 AM 46.4 °F 41.5 °F 41.0 °F 81% 30.23 in 7.0 mi NE 10.4 mph - N/A   Overcast
9:55 AM 46.4 °F 40.7 °F 41.0 °F 81% 30.23 in 7.0 mi ENE 12.7 mph - N/A   Overcast
10:15 AM 46.4 °F 41.1 °F 42.8 °F 87% 30.24 in 7.0 mi NE 11.5 mph - N/A   Overcast
10:35 AM 46.4 °F 41.5 °F 42.8 °F 87% 30.24 in 4.0 mi ENE 10.4 mph - N/A   Overcast
10:55 AM 46.4 °F 41.9 °F 44.6 °F 93% 30.24 in 3.0 mi NE 9.2 mph - N/A   Light Drizzle
11:15 AM 46.4 °F 42.4 °F 44.6 °F 93% 30.23 in 3.0 mi NE 8.1 mph - N/A   Light Drizzle
11:35 AM 46.4 °F 42.9 °F 44.6 °F 93% 30.22 in 3.0 mi NE 6.9 mph - N/A   Overcast
12:15 PM 46.4 °F 43.5 °F 46.4 °F 100% 30.22 in 3.0 mi NE 5.8 mph - N/A   Overcast
12:35 PM 46.4 °F - 46.4 °F 100% 30.22 in 2.0 mi Calm Calm - N/A   Drizzle
12:55 PM 46.4 °F - 46.4 °F 100% 30.21 in 2.0 mi Calm Calm - N/A   Drizzle
1:35 PM 48.2 °F - 46.4 °F 93% 30.20 in 3.0 mi Calm Calm - N/A   Drizzle
2:55 PM 48.2 °F - 46.4 °F 93% 30.16 in 4.0 mi Calm Calm - N/A   Overcast
3:35 PM 48.2 °F - 46.4 °F 93% 30.15 in 7.0 mi NNW 5.8 mph - N/A   Overcast
3:55 PM 48.2 °F - 48.2 °F 100% 30.15 in 5.0 mi Calm Calm - N/A   Overcast
4:15 PM 48.2 °F - 46.4 °F 93% 30.10 in 4.0 mi NE 9.2 mph - N/A   Overcast
4:35 PM 48.2 °F - 48.2 °F 100% 30.15 in 4.0 mi South 3.5 mph - N/A Thunderstorm Overcast
4:55 PM 50.0 °F - 48.2 °F 94% 30.13 in 2.5 mi Calm Calm - N/A   Light Drizzle
5:15 PM 50.0 °F - 48.2 °F 94% 30.11 in 3.0 mi ESE 6.9 mph - N/A Rain Light Rain
5:35 PM 50.0 °F - 50.0 °F 100% 30.09 in 1.2 mi ESE 8.1 mph - N/A   Overcast
5:55 PM 50.0 °F - 50.0 °F 100% 30.07 in 0.8 mi East 8.1 mph - N/A   Overcast
6:15 PM 50.0 °F - 50.0 °F 100% 30.09 in 0.8 mi East 4.6 mph - N/A Thunderstorm Overcast
6:35 PM 50.0 °F - 50.0 °F 100% 30.09 in 1.0 mi Calm Calm - N/A   Overcast
6:55 PM 50.0 °F - 50.0 °F 100% 30.09 in 0.8 mi Calm Calm - N/A   Overcast
7:15 PM 50.0 °F - 50.0 °F 100% 30.08 in 0.8 mi Calm Calm - N/A   Overcast
7:55 PM 50.0 °F - 50.0 °F 100% 30.08 in 1.2 mi Calm Calm - N/A   Light Drizzle
8:15 PM 50.0 °F - 50.0 °F 100% 30.08 in 1.5 mi Calm Calm - N/A Rain Rain
8:35 PM 50.0 °F - 50.0 °F 100% 30.07 in 1.2 mi Calm Calm - N/A   Drizzle
8:55 PM 50.0 °F - 50.0 °F 100% 30.08 in 1.8 mi Calm Calm - 0.01 in   Drizzle
9:15 PM 51.8 °F - 50.0 °F 94% 30.07 in 1.8 mi Calm Calm - N/A   Drizzle
9:35 PM 51.8 °F - 50.0 °F 94% 30.05 in 1.8 mi Calm Calm - 0.01 in Rain Rain
10:15 PM 51.8 °F - 51.8 °F 100% 30.04 in 1.8 mi Calm Calm - N/A   Overcast
10:55 PM 51.8 °F - 51.8 °F 100% 30.02 in 0.8 mi ESE 4.6 mph - N/A   Overcast
11:15 PM 51.8 °F - 51.8 °F 100% 30.00 in 0.5 mi Calm Calm - N/A Fog Fog
11:35 PM 51.8 °F - 51.8 °F 100% 30.01 in 0.2 mi SSE 4.6 mph - N/A Fog Fog